GW6384 Weather Reports


Display with metric or nautical units.
time (UTC)temp
F
wind
direction
speed
MPH
gust
MPH
rain 1hr
in
rain 24hr
in
rain mn
in
humidity
%
barometer
mb
20260505124242 50 29 7.0 14.0 0.01 0.00 0.04 87 240.9
20260505123741 50 20 7.0 14.0 0.01 0.00 0.04 88 241.0
20260505122725 50 14 8.0 14.0 0.01 0.00 0.04 87 242.5
20260505122225 50 5 7.0 14.0 0.01 0.00 0.04 87 253.9
20260505121724 50 17 7.0 14.0 0.01 0.00 0.04 86 291.7
20260505121223 50 14 8.0 14.0 0.00 0.00 0.03 85 364.6
20260505120207 51 313 3.0 13.0 0.00 0.00 0.03 84 505.7
20260505115706 50 32 6.0 14.0 0.00 0.00 0.03 84 256.9
20260505115206 51 41 7.0 15.0 0.00 0.00 0.03 84 254.3
20260505114705 51 32 10.0 15.0 0.00 0.00 0.03 84 245.5
20260505114205 51 37 7.0 15.0 0.00 0.00 0.03 84 236.2
20260505113705 51 13 8.0 15.0 0.00 0.00 0.03 84 228.8
20260505113204 51 22 6.0 15.0 0.00 0.00 0.03 84 253.4
20260505112703 51 30 7.0 15.0 0.00 0.00 0.03 84 249.7
20260505112202 51 31 8.0 14.0 0.00 0.00 0.03 84 255.1
20260505111702 51 23 8.0 14.0 0.00 0.00 0.03 84 251.7
20260505111202 51 30 8.0 14.0 0.00 0.00 0.03 84 263.2
20260505110146 51 30 7.0 15.0 0.01 0.00 0.03 85 251.6
20260505102127 52 27 8.0 12.0 0.01 0.00 0.03 86 274.6
20260505101627 52 54 6.0 12.0 0.01 0.00 0.03 86 305.3
20260505101127 52 40 5.0 12.0 0.01 0.00 0.03 86 299.3
20260505100627 52 47 4.0 12.0 0.01 0.00 0.03 86 296.6
20260505100127 52 25 8.0 13.0 0.01 0.00 0.03 86 310.5
20260505095627 52 4 5.0 13.0 0.00 0.00 0.02 86 400.9
20260505095126 52 20 8.0 13.0 0.00 0.00 0.02 86 245.5
20260505094626 53 31 7.0 15.0 0.00 0.00 0.02 85 274.1
20260505094126 53 33 5.0 15.0 0.00 0.00 0.02 85 283.8
20260505093625 53 9 6.0 15.0 0.00 0.00 0.02 85 323.8
20260505093124 53 14 7.0 15.0 0.00 0.00 0.02 85 316.9
20260505092624 53 10 6.0 15.0 0.00 0.00 0.02 85 347.8
20260505092123 53 7 9.0 15.0 0.00 0.00 0.02 85 443.6
20260505091623 53 357 7.0 15.0 0.00 0.00 0.02 85 560.9
20260505091122 53 6 9.0 18.0 0.00 0.00 0.02 85 298.7
20260505090621 53 17 12.0 19.0 0.00 0.00 0.02 85 255.6
20260505090121 53 36 11.0 19.0 0.00 0.00 0.02 85 286.4
20260505085620 54 44 8.0 14.0 0.00 0.00 0.02 86 305.6
20260505085120 54 44 8.0 18.0 0.00 0.00 0.02 86 318.5
20260505083549 55 46 8.0 14.0 0.02 0.00 0.02 85 274.4
20260505083049 55 45 7.0 19.0 0.02 0.00 0.02 87 265.6
20260505082549 55 14 13.0 19.0 0.02 0.00 0.02 87 258.5
20260505081533 56 39 7.0 13.0 0.02 0.00 0.02 88 262.4
20260505081032 57 11 6.0 13.0 0.02 0.00 0.02 88 257.2
20260505080016 57 2 6.0 13.0 0.02 0.00 0.02 87 300.6
20260505075516 57 21 6.0 15.0 0.02 0.00 0.02 86 249.5
20260505075016 57 40 4.0 18.0 0.02 0.00 0.02 86 262.3
20260505073101 59 4 16.0 23.0 0.01 0.00 0.01 81 842.3
20260505072601 61 343 14.0 15.0 0.00 0.00 0.00 76 974.4
20260505072101 67 336 15.0 14.0 0.00 0.00 0.00 66 940.0
20260505071600 69 295 5.0 12.0 0.00 0.00 0.00 71 871.3
20260505071100 69 219 0.0 12.0 0.00 0.00 0.00 70 811.2
20260505070600 69 219 0.0 12.0 0.00 0.00 0.00 70 807.6
20260505065544 69 220 2.0 12.0 0.00 0.00 0.00 70 793.7
20260505065043 69 215 2.0 12.0 0.00 0.00 0.00 70 770.0
20260505064542 69 209 4.0 12.0 0.00 0.00 0.00 70 739.3
20260505064042 69 173 3.0 12.0 0.00 0.00 0.00 70 692.7
20260505063541 69 177 3.0 12.0 0.00 0.00 0.00 70 669.4
20260505063040 69 149 2.0 12.0 0.00 0.00 0.00 70 660.9
20260505062539 69 169 1.0 12.0 0.00 0.00 0.00 70 703.6
20260505062038 70 188 2.0 12.0 0.00 0.00 0.00 70 726.3
20260505061537 70 201 2.0 12.0 0.00 0.00 0.00 70 735.4
20260505060521 70 169 3.0 12.0 0.00 0.00 0.00 70 688.1
20260505060020 70 189 3.0 12.0 0.00 0.00 0.00 70 689.3
20260505055519 70 173 2.0 12.0 0.00 0.00 0.00 69 686.1
20260505054503 70 176 3.0 12.0 0.00 0.00 0.00 69 683.5
20260505054003 70 183 3.0 12.0 0.00 0.00 0.00 69 679.3
20260505053503 70 169 4.0 12.0 0.00 0.00 0.00 69 660.3
20260505053003 70 167 2.0 12.0 0.00 0.00 0.00 69 662.4
20260505052503 70 163 2.0 12.0 0.00 0.00 0.00 69 660.3
20260505052002 70 166 3.0 12.0 0.00 0.00 0.00 69 657.7
20260505050947 70 162 2.0 12.0 0.00 0.00 0.00 69 638.0
20260505041358 72 170 3.0 12.0 0.00 0.00 0.00 66 662.5
20260505040858 72 167 2.0 12.0 0.00 0.00 0.00 65 664.0
20260505035325 72 179 3.0 12.0 0.00 0.00 0.00 65 686.9
20260505034825 73 173 2.0 12.0 0.00 0.00 0.00 64 665.9
20260505034324 73 171 3.0 12.0 0.00 0.00 0.00 64 672.9
20260505033823 73 167 4.0 12.0 0.00 0.00 0.00 64 672.2
20260505033323 73 166 4.0 12.0 0.00 0.00 0.00 64 675.0
20260505032822 73 180 5.0 12.0 0.00 0.00 0.00 64 672.5
20260505032321 73 173 5.0 12.0 0.00 0.00 0.00 64 679.0
20260505031305 73 172 4.0 12.0 0.00 0.00 0.00 64 696.2
20260505030804 73 183 2.0 12.0 0.00 0.00 0.00 64 701.8
20260505030303 73 176 1.0 12.0 0.00 0.00 0.00 64 711.4
20260505025802 73 183 1.0 12.0 0.00 0.00 0.00 64 733.8
20260505025301 73 211 2.0 12.0 0.00 0.00 0.00 64 773.1
20260505024800 73 210 3.0 12.0 0.00 0.00 0.00 64 749.6
20260505024300 73 189 3.0 12.0 0.00 0.00 0.00 64 719.0
20260505022729 74 185 1.0 12.0 0.00 0.00 0.00 64 708.9
20260505021713 74 176 1.0 12.0 0.00 0.00 0.00 64 694.3
20260505021212 74 169 2.0 12.0 0.00 0.00 0.00 64 699.2
20260505020711 74 195 2.0 12.0 0.00 0.00 0.00 64 738.7
20260505020210 74 203 2.0 12.0 0.00 0.00 0.00 63 745.9
20260505015709 75 186 4.0 12.0 0.00 0.00 0.00 64 744.0
20260505015208 75 221 5.0 12.0 0.00 0.00 0.00 64 738.5
20260505014708 75 175 4.0 12.0 0.00 0.00 0.00 64 673.1
20260505014207 75 154 3.0 11.0 0.00 0.00 0.00 63 653.5
20260505013706 75 176 1.0 11.0 0.00 0.00 0.00 63 659.3
20260505013206 75 149 1.0 11.0 0.00 0.00 0.00 63 628.2
20260505012706 76 173 2.0 11.0 0.00 0.00 0.00 63 651.1
20260505012205 76 156 3.0 11.0 0.00 0.00 0.00 62 651.7
20260505011149 76 183 4.0 11.0 0.00 0.00 0.00 62 692.8
20260505010648 76 177 5.0 11.0 0.00 0.00 0.00 62 700.3
20260505010147 77 179 5.0 11.0 0.00 0.00 0.00 61 684.3
20260505005131 77 170 5.0 11.0 0.00 0.00 0.00 61 686.3
20260505004630 77 160 3.0 11.0 0.00 0.00 0.00 60 699.8
20260505004129 78 187 4.0 15.0 0.00 0.00 0.00 60 723.0
20260505003628 78 189 6.0 15.0 0.00 0.00 0.00 59 734.0
20260505003128 78 181 3.0 13.0 0.00 0.00 0.00 59 747.6
20260505002627 79 204 8.0 13.0 0.00 0.00 0.00 59 777.5
20260505002127 79 221 4.0 14.0 0.00 0.00 0.00 58 782.8
20260505001626 79 209 4.0 14.0 0.00 0.00 0.00 58 768.7
20260505001125 79 203 7.0 14.0 0.00 0.00 0.00 57 762.8
20260505000624 79 195 5.0 14.0 0.00 0.00 0.00 57 767.6
20260505000123 80 204 5.0 14.0 0.00 0.00 0.00 57 778.5
20260504235623 80 212 5.0 14.0 0.00 0.00 0.00 56 780.2
20260504235122 80 202 5.0 13.0 0.00 0.00 0.00 56 772.1
20260504234621 80 216 5.0 13.0 0.00 0.00 0.00 56 767.6
20260504234121 80 205 6.0 13.0 0.00 0.00 0.00 55 761.1
20260504233620 80 196 7.0 14.0 0.00 0.00 0.00 55 754.3
20260504233119 81 204 7.0 14.0 0.00 0.00 0.00 55 748.6
20260504232618 81 193 6.0 14.0 0.00 0.00 0.00 54 732.8
20260504232117 81 182 5.0 14.0 0.00 0.00 0.00 54 731.5
20260504231616 81 191 8.0 14.0 0.00 0.00 0.00 54 752.4
20260504231115 81 204 6.0 12.0 0.00 0.00 0.00 53 767.4
20260504230614 81 198 3.0 15.0 0.00 0.00 0.00 54 766.3
20260504225558 81 191 3.0 15.0 0.00 0.00 0.00 53 746.6
20260504225057 81 193 4.0 15.0 0.00 0.00 0.00 53 759.3
20260504224041 82 211 5.0 15.0 0.00 0.00 0.00 51 784.8
20260504223025 83 234 5.0 15.0 0.00 0.00 0.00 49 801.4
20260504222524 83 206 8.0 14.0 0.00 0.00 0.00 48 776.4
20260504222023 83 219 6.0 22.0 0.00 0.00 0.00 48 797.0
20260504221522 83 196 5.0 22.0 0.00 0.00 0.00 49 771.9
20260504221022 83 220 8.0 18.0 0.00 0.00 0.00 48 778.6
20260504220006 83 206 7.0 19.0 0.00 0.00 0.00 49 794.0
20260504215506 83 211 5.0 16.0 0.00 0.00 0.00 49 803.4
20260504215006 83 201 7.0 16.0 0.00 0.00 0.00 49 799.9
20260504214506 82 219 8.0 16.0 0.00 0.00 0.00 49 811.4
20260504214005 82 211 6.0 14.0 0.00 0.00 0.00 49 799.9
20260504212949 82 208 6.0 14.0 0.00 0.00 0.00 49 784.9
20260504212448 82 219 7.0 20.0 0.00 0.00 0.00 50 784.6
20260504211947 82 202 6.0 20.0 0.00 0.00 0.00 50 766.3
20260504210930 81 197 9.0 18.0 0.00 0.00 0.00 50 760.4
20260504210429 81 199 8.0 18.0 0.00 0.00 0.00 49 777.4
20260504205928 81 222 6.0 15.0 0.00 0.00 0.00 50 794.4
20260504204912 81 229 7.0 21.0 0.00 0.00 0.00 49 816.5
20260504204411 82 222 7.0 21.0 0.00 0.00 0.00 49 797.2
20260504203910 82 195 6.0 15.0 0.00 0.00 0.00 49 776.8
20260504203410 82 215 7.0 15.0 0.00 0.00 0.00 49 787.1
20260504202909 82 207 7.0 21.0 0.00 0.00 0.00 49 780.9
20260504202409 82 213 6.0 20.0 0.00 0.00 0.00 50 786.7
20260504201908 82 215 7.0 16.0 0.00 0.00 0.00 49 775.5
20260504201407 82 191 9.0 13.0 0.00 0.00 0.00 48 768.5
20260504200351 82 184 9.0 18.0 0.00 0.00 0.00 49 769.6
20260504195850 82 210 7.0 16.0 0.00 0.00 0.00 50 795.5
20260504195349 82 210 8.0 16.0 0.00 0.00 0.00 49 793.7
20260504194849 81 205 8.0 16.0 0.00 0.00 0.00 50 788.8
20260504194348 82 194 10.0 15.0 0.00 0.00 0.00 49 787.3
20260504193847 81 206 5.0 15.0 0.00 0.00 0.00 50 782.0
20260504191322 81 199 6.0 19.0 0.00 0.00 0.00 50 780.8
20260504190821 81 227 7.0 19.0 0.00 0.00 0.00 50 803.3
20260504190320 81 216 7.0 18.0 0.00 0.00 0.00 50 782.5
20260504185304 81 209 5.0 15.0 0.00 0.00 0.00 51 796.9
20260504184803 80 205 8.0 15.0 0.00 0.00 0.00 50 802.1
20260504184303 80 216 8.0 21.0 0.00 0.00 0.00 52 803.3
20260504183247 80 239 8.0 28.0 0.00 0.00 0.00 50 809.3
20260504182746 80 210 10.0 28.0 0.00 0.00 0.00 50 772.2
20260504182245 79 205 7.0 18.0 0.00 0.00 0.00 52 754.3
20260504181744 79 201 7.0 20.0 0.00 0.00 0.00 52 742.9
20260504180728 78 202 7.0 22.0 0.00 0.00 0.00 52 759.3
20260504180227 78 211 9.0 22.0 0.00 0.00 0.00 52 757.5
20260504175727 78 205 7.0 19.0 0.00 0.00 0.00 52 756.2
20260504174205 78 194 6.0 16.0 0.00 0.00 0.00 53 788.0
20260504173704 77 245 8.0 18.0 0.00 0.00 0.00 52 809.5
20260504173203 77 196 7.0 19.0 0.00 0.00 0.00 52 778.3
20260504172703 77 202 7.0 23.0 0.00 0.00 0.00 52 810.4
20260504172202 77 214 10.0 23.0 0.00 0.00 0.00 52 801.6
20260504171701 77 212 9.0 19.0 0.00 0.00 0.00 52 808.4
20260504171201 77 225 8.0 22.0 0.00 0.00 0.00 53 809.1
20260504170701 76 226 10.0 22.0 0.00 0.00 0.00 52 813.0
20260504170200 76 208 9.0 20.0 0.00 0.00 0.00 53 800.3
20260504160106 72 206 6.0 16.0 0.00 0.00 0.00 56 777.5
20260504151058 71 212 9.0 22.0 0.00 0.00 0.00 54 799.0
20260504150557 72 220 9.0 22.0 0.00 0.00 0.00 54 793.2